Hourly Data Report for October 28, 2015

All times are specified in Local Standard Time (LST). Add 1 hour to adjust for Daylight Saving Time where and when it is observed.

CHARLOTTETOWN A
PRINCE EDWARD ISLAND

46°17'21.000" N
63°07'09.000" W
48.50 m
8300301
71706
YYG

Download Data

Hourly Data (October 2015)
Hourly Data Report for October 28, 2015
Temp Definition
°C
Dew Point Temp Definition
°C
Rel Hum Definition
%
Wind Dir Definition
10's deg

Wind Spd Definition
km/h
Visibility Definition
km
Stn Press Definition
kPa
Hmdx Definition


Wind Chill Definition


Weather Definition


TIME
00:00 Legend Double Dagger 5.3 -1.6 61 28 19 24.1 102.47     LegendNANA
01:00 Legend Double Dagger 4.6 -3.0 58 29 22 24.1 102.55     LegendNANA
02:00 Legend Double Dagger 3.5 -4.7 55 29 17 24.1 102.61     Mainly Clear
03:00 Legend Double Dagger 1.7 -4.6 63 26 10 24.1 102.67     LegendNANA
04:00 Legend Double Dagger 0.8 -4.6 67 27 14 24.1 102.71     LegendNANA
05:00 Legend Double Dagger 0.6 -4.8 67 27 13 24.1 102.73     Mainly Clear
06:00 Legend Double Dagger 0.2 -5.4 66 26 11 24.1 102.78     LegendNANA
07:00 Legend Double Dagger 0.1 -5.3 67 27 13 24.1 102.80     LegendNANA
08:00 Legend Double Dagger 2.2 -4.3 62 27 12 24.1 102.90     Mainly Clear
09:00 Legend Double Dagger 4.9 -3.6 54 28 9 24.1 102.97     LegendNANA
10:00 Legend Double Dagger 5.6 -4.0 50 29 16 24.1 102.92     LegendNANA
11:00 Legend Double Dagger 6.2 -4.9 45 28 15 24.1 102.88     Mostly Cloudy
12:00 Legend Double Dagger 6.7 -4.7 44 27 5 24.1 102.76     LegendNANA
13:00 Legend Double Dagger 7.5 -4.9 41 26 17 24.1 102.69     LegendNANA
14:00 Legend Double Dagger 7.3 -3.8 45 23 14 24.1 102.64     Mainly Clear
15:00 Legend Double Dagger 6.9 -3.6 47 22 12 24.1 102.64     LegendNANA
16:00 Legend Double Dagger 6.1 -5.0 45 22 10 24.1 102.60     LegendNANA
17:00 Legend Double Dagger 3.5 -4.2 57   0 24.1 102.54     Cloudy
18:00 Legend Double Dagger 1.7 -3.4 69 36 3 24.1 102.53     LegendNANA
19:00 Legend Double Dagger 3.5 -2.3 66 17 8 24.1 102.51     LegendNANA
20:00 Legend Double Dagger 2.9 -0.9 76 12 8 24.1 102.45     Cloudy
21:00 Legend Double Dagger 3.5 0.4 80 13 9 24.1 102.39     LegendNANA
22:00 Legend Double Dagger 3.6 0.5 80 13 7 24.1 102.34     LegendNANA
23:00 Legend Double Dagger 3.9 1.3 83 13 8 24.1 102.25     Cloudy

Notes on Data Quality.

Legend

  • E = Estimated
  • M = Missing
  • NA = Not Available
  • ‡ = Partner data that is not subject to review by the National Climate Archives
Date modified: